Location: Forst
(46.9333°N, 15.4333°E)
Time: 20:48:44
(UTC+00:00)

N. Korean satellite - Pass Details

Date: 30 September 2021
Orbit: 450 x 494 km, 97.3° (Epoch: 28 October)

Event Time Altitude Azimuth Distance (km) Brightness Sun altitude
Rises 04:16:28 0° 13° (NNE) 2,546 10.5 -7.5°
Reaches altitude 10° 04:18:32 10° 15° (NNE) 1,669 9.5 -7.2°
Maximum altitude 04:22:07 78° 101° (E) 503 6.8 -6.6°
Drops below altitude 10° 04:25:44 10° 189° (S) 1,677 9.2 -5.9°
Sets 04:27:49 0° 191° (S) 2,559 10.1 -5.6°
